sat.trackr.live / text

‹ back to catalog

ANSER FOLLOWER 2

NORAD 58018 · 2023-155C

PAYLOAD ACTIVE UNKNOWN

§ Identity

Operator
Country
SPN
Launch date
2023-10-09
Launch site
FRGUI
Launch vehicle
Mass (kg)
RCS (m²)

External: N2YO · Heavens-Above · Gunter

§ Orbital elements

Epoch: 2026-09-21T00:08:03.734592Z

Period
92.42 min
Inclination
97.5483°
Eccentricity
0.0002168
Mean motion
15.58134999 rev/d
Perigee alt
391.6 km
Apogee alt
394.5 km
Semi-major
6,771.2 km
B*
1.9744e-4
RAAN
358.0825°
Arg perigee
132.1972°
Mean anomaly
227.9468°
Rev number
16,382

§ Raw data

ANSER FOLLOWER 21 58018U 23155C   26264.00559878  .00014760  00000+0  19744-3 0  99952 58018  97.5483 358.0825 0002168 132.1972 227.9468 15.58134999163825

JSON: /api/v1/satellites/58018 · /tle

For live sub-satellite position, see the globe view (requires WebGL).

§ Visibility from observer

Set your observer location to see the next 7 days of passes ≥ 10°. The values pass through the URL so the page stays shareable.

No JS? Fill the form by hand. The geolocation button needs JavaScript.